Location: Clatteringshaws Loch
(55.0508°N, 4.2860°W)
Time: 08:24:20
(UTC+00:00)

ALOS - Visible Passes

Search period start: 05 December 2016 00:00
Search period end: 15 December 2016 00:00
Orbit: 685 x 686 km, 97.9° (Epoch: 05 December)

Date Brightness Start Highest point End Pass type
(mag) Time Alt. Az. Time Alt. Az. Time Alt. Az.
05 Dec 4.9 07:26:53 10° NE 07:30:35 22° E 07:34:13 10° SE visible
05 Dec 4.2 17:05:20 11° NE 17:05:20 11° NE 17:06:31 10° NNE visible
05 Dec 3.6 18:43:53 26° N 18:43:53 26° N 18:46:07 10° N visible
05 Dec 4.9 20:22:25 15° NW 20:22:25 15° NW 20:23:24 10° NNW visible
06 Dec 3.8 17:43:24 17° NE 17:43:24 17° NE 17:45:32 10° N visible
06 Dec 3.9 19:21:56 25° NNW 19:21:56 25° NNW 19:23:52 10° NNW visible
07 Dec 5.2 07:05:20 10° NE 07:08:03 15° E 07:10:45 10° ESE visible
07 Dec 3.6 18:21:27 24° NNE 18:21:27 24° NNE 18:23:42 10° N visible
07 Dec 4.6 20:00:00 19° NNW 20:00:00 19° NNW 20:01:23 10° NNW visible
08 Dec 4.4 07:41:59 10° NNE 07:46:06 29° E 07:50:10 10° SSE visible
08 Dec 4.0 17:20:58 14° NE 17:20:58 14° NE 17:22:41 10° NNE visible
08 Dec 3.7 18:59:30 26° N 18:59:30 26° N 19:01:35 10° N visible
08 Dec 5.2 20:38:03 12° NW 20:38:03 12° NW 20:38:31 10° NW visible
09 Dec 3.7 17:59:01 20° NNE 17:59:01 20° NNE 18:01:10 10° N visible
09 Dec 4.2 19:37:33 22° NNW 19:37:33 22° NNW 19:39:14 10° NNW visible
10 Dec 5.0 07:20:10 10° NE 07:23:37 20° E 07:27:03 10° SE visible
10 Dec 4.2 16:58:31 10° NE 16:58:31 10° NE 16:58:48 10° NE visible
10 Dec 3.6 18:37:03 25° N 18:37:03 25° N 18:39:12 10° N visible
10 Dec 4.8 20:15:35 16° NW 20:15:35 16° NW 20:16:36 10° NNW visible
11 Dec 3.9 17:36:33 16° NE 17:36:33 16° NE 17:38:31 10° NNE visible
11 Dec 3.9 19:15:05 24° NNW 19:15:05 24° NNW 19:16:59 10° NNW visible
12 Dec 5.3 06:58:45 10° NE 07:01:05 13° E 07:03:23 10° ESE visible
12 Dec 3.7 18:14:34 22° NNE 18:14:34 22° NNE 18:16:45 10° N visible
12 Dec 4.5 19:53:06 19° NNW 19:53:06 19° NNW 19:54:32 10° NNW visible
13 Dec 4.6 07:35:11 10° NE 07:39:09 26° E 07:43:04 10° SSE visible
13 Dec 4.1 17:14:03 13° NE 17:14:03 13° NE 17:15:33 10° NNE visible
13 Dec 3.7 18:52:35 25° N 18:52:35 25° N 18:54:40 10° N visible
13 Dec 5.1 20:31:07 13° NW 20:31:07 13° NW 20:31:45 10° NW visible
14 Dec 3.8 17:52:03 19° NNE 17:52:03 19° NNE 17:54:11 10° N visible
14 Dec 4.1 19:30:36 23° NNW 19:30:36 23° NNW 19:32:21 10° NNW visible
